Temp
20 21 21 21 21 22 22 22 22 23 24 25 25 24 24 24 24 24 30 32 31 30 29 31 31 33 34 36 36 36 38 36 36 37 37 37 36 35 35 33 32 32 32 29 26
20 21 21 21 22 22 22 22 22 23 23 24 25 24 24 24 22 29 31 31 30 30 31 34 35 35 37 37 37 39 38 37 38 37 37 37 37 35 35 33 31 30 29 27 26
20 21 21 21 21 22 22 23 22 23 23 24 24 24 24 24 29 36 30 31 31 30 32 34 35 36 37 37 37 38 38 38 39 38 38 38 37 37 36 35 33 30 29 28 27
19 20 20 21 21 22 23 23 22 23 23 24 23 24 24 21 34 31 30 30 30 30 33 34 36 37 37 37 37 38 38 38 39 38 37 37 37 36 36 35 34 31 30 29 29
18 19 20 21 21 22 23 23 22 23 22 23 23 23 23 30 34 29 30 30 29 31 34 36 36 37 37 37 37 38 38 38 39 39 38 37 37 36 35 35 33 31 30 30 30
18 18 20 21 21 22 23 24 23 22 22 22 23 23 25 32 29 28 29 29 31 33 34 35 36 37 37 37 37 37 38 38 39 38 37 38 36 37 34 34 32 31 31 31 30
18 18 19 20 21 22 23 24 24 22 22 22 23 21 28 33 29 28 29 31 32 34 35 34 35 37 37 37 36 37 37 39 39 39 37 38 36 36 34 34 32 32 32 31 30
18 18 19 20 21 23 23 24 23 22 22 22 22 21 33 28 29 28 30 31 31 32 34 33 34 36 37 36 37 37 38 38 39 39 37 38 36 35 35 34 33 32 32 31 31
17 18 19 20 21 23 22 22 22 22 22 22 22 26 34 28 30 31 31 33 32 32 32 32 35 37 36 37 38 38 38 39 38 39 38 38 37 34 35 35 33 32 32 32 31
16 18 19 20 21 22 21 21 21 21 20 19 22 28 31 33 32 31 31 32 33 34 34 35 36 36 37 37 37 38 38 39 38 39 39 39 37 35 35 35 34 34 33 32 32
16 17 19 20 21 21 20 20 26 27 26 33 34 33 33 33 32 33 32 33 35 35 35 35 36 36 38 38 37 37 38 38 38 38 38 39 38 36 35 36 35 34 33 33 33
15 17 19 20 21 21 21 29 27 26 31 33 32 32 32 34 34 34 33 35 35 35 36 35 35 38 37 36 36 37 38 38 37 37 38 38 38 37 35 36 36 35 34 34 34
14 16 18 20 21 21 23 27 24 25 31 33 33 34 34 34 35 34 35 36 35 36 35 36 37 36 36 36 37 38 38 38 38 37 38 38 37 36 36 36 36 36 36 35 35
13 15 17 20 21 21 27 24 24 24 32 34 33 34 34 35 34 36 35 36 35 35 36 36 37 36 36 37 38 38 38 38 38 38 37 38 37 37 38 36 36 36 36 36 35
13 14 16 16 17 24 25 24 25 27 32 35 33 34 36 35 36 35 35 35 35 35 35 36 36 36 37 38 38 37 38 38 38 38 37 37 37 38 38 37 38 37 37 36 35
13 14 15 15 16 21 22 24 26 31 31 33 34 33 34 35 35 35 34 36 36 36 36 37 37 38 39 38 38 37 37 37 37 38 36 37 37 38 38 38 39 39 38 37 36
14 16 15 14 25 21 22 28 30 31 33 34 34 35 35 35 35 34 34 34 35 33 34 36 37 38 38 37 37 37 37 36 35 36 36 36 36 37 38 37 37 38 39 37 37
14 17 16 18 18 19 24 29 29 33 34 34 35 35 35 36 35 35 35 34 36 37 37 36 35 37 38 38 37 37 38 37 34 35 36 34 35 37 36 36 36 37 39 38 37
14 17 17 19 17 18 27 29 30 32 34 34 34 34 35 35 36 35 35 35 36 36 36 36 37 38 37 38 38 36 36 38 36 36 36 37 36 37 36 36 35 36 38 38 37
10 17 21 18 17 21 27 28 32 34 33 34 34 35 34 35 34 35 35 36 36 36 38 37 36 37 35 37 36 37 38 36 37 34 34 35 34 36 36 36 35 35 36 36 36
13 21 20 18 19 26 28 30 32 33 32 33 34 35 35 35 35 35 36 36 37 36 37 37 36 36 35 36 37 35 36 37 37 36 35 34 36 36 36 36 36 35 36 36 36
15 23 18 18 24 27 28 30 31 32 32 32 33 34 35 36 35 36 36 36 37 38 35 37 37 36 36 35 35 38 38 37 36 33 35 35 35 37 37 36 36 36 35 35 36
17 21 19 20 26 28 28 30 31 32 33 32 33 34 34 35 34 36 36 37 36 37 36 37 35 34 34 35 34 36 37 37 37 36 34 34 36 36 35 35 35 35 36 35 34
16 22 23 21 26 25 28 28 29 31 32 33 33 34 33 33 35 35 36 34 35 37 29 34 36 35 36 36 37 35 35 36 36 35 36 35 36 35 35 34 35 33 34 34 32
16 21 19 24 25 25 28 29 29 30 31 32 32 32 33 32 34 34 36 33 33 27 34 36 35 35 37 37 37 36 36 35 35 36 35 36 35 35 34 32 32 31 32 32 32
16 18 19 20 21 24 22 26 29 30 31 30 30 33 33 32 34 34 34 34 33 32 34 36 34 35 35 35 36 36 36 35 35 36 35 35 34 34 33 33 32 31 30 30 30
13 13 16 20 22 23 25 26 28 30 31 32 31 33 32 33 35 35 35 35 36 34 33 33 33 33 34 34 34 34 35 35 35 35 35 34 34 33 33 32 31 31 30 29 29
Height
804 802 799 795 793 790 787 784 782 780 779 778 779 779 780 780 781 781 778 775 775 775 777 779 778 774 771 765 763 759 770 785 784 777 775 766 772 773 774 784 788 789 791 807 818
805 802 799 796 793 790 786 783 781 779 778 777 777 778 779 780 780 778 774 772 774 775 777 775 772 771 766 765 761 758 771 781 768 767 773 767 768 776 781 788 797 800 807 814 820
805 802 799 796 792 788 785 782 779 778 777 776 776 778 779 780 778 764 768 771 773 775 776 775 773 770 769 765 766 764 776 767 763 764 762 765 771 770 776 786 789 802 809 816 820
804 801 799 795 791 787 783 780 778 777 777 775 775 778 780 782 783 766 767 770 773 776 776 774 771 770 770 773 766 772 765 765 761 761 766 769 767 776 777 781 783 797 807 815 820
804 801 797 794 790 786 782 778 777 776 776 775 776 778 780 777 767 767 767 771 774 776 774 772 771 769 774 770 768 771 765 763 758 760 765 766 775 779 785 782 790 801 808 814 819
804 800 796 792 789 785 780 776 775 775 775 775 776 778 779 776 768 768 770 772 774 775 773 772 768 768 770 772 774 769 766 764 761 764 766 770 778 774 788 787 796 804 808 813 818
804 800 795 790 786 782 778 775 774 775 775 775 777 779 776 765 767 768 771 772 774 774 772 773 772 769 768 774 769 770 780 761 761 762 771 763 787 784 785 789 799 804 808 812 818
803 799 794 789 784 779 775 773 774 775 775 776 778 781 765 766 767 768 770 772 774 775 774 774 773 769 769 768 769 776 771 779 766 764 768 767 795 788 784 790 799 803 807 812 817
802 797 793 788 783 777 773 774 775 776 776 777 780 778 761 765 766 766 768 769 772 774 775 775 772 769 771 779 780 773 782 776 779 761 768 770 788 788 783 787 797 802 807 811 816
801 796 791 787 782 777 775 775 776 777 778 779 779 778 762 758 761 764 767 768 770 771 774 774 771 776 772 778 791 783 780 775 780 770 767 773 784 787 785 786 793 798 803 808 812
799 795 790 785 781 777 776 778 777 776 774 755 754 755 753 756 760 762 765 767 766 770 779 773 782 784 769 766 771 775 774 778 773 768 774 771 780 786 785 785 791 794 799 803 807
798 793 788 784 779 777 776 770 771 775 765 752 755 757 756 753 758 758 762 764 768 778 768 783 786 761 764 770 776 777 777 779 777 772 775 776 783 780 784 784 784 790 794 796 800
797 791 786 782 777 777 776 772 773 773 764 749 749 749 751 754 752 757 757 755 765 771 775 775 765 763 771 774 778 771 774 778 778 777 770 777 791 790 781 781 781 782 787 790 794
796 791 786 779 779 777 772 773 771 771 765 749 750 743 747 745 755 747 751 754 763 772 770 769 759 770 773 772 766 776 766 770 776 784 796 775 803 785 777 784 783 783 785 787 791
794 790 786 784 781 775 773 772 771 770 787 737 743 735 733 746 739 750 749 753 764 766 770 769 768 772 773 766 760 773 764 771 774 779 784 788 796 776 772 783 776 775 777 781 786
791 788 783 783 781 773 772 771 771 776 783 748 735 742 745 740 743 743 752 749 747 760 761 758 751 755 754 756 758 763 774 777 777 776 808 783 794 784 775 774 763 762 769 775 780
786 783 781 782 772 771 771 767 774 774 737 742 741 734 736 743 746 748 757 763 766 783 780 765 763 751 751 768 764 767 776 800 813 808 808 786 798 781 765 766 767 759 761 768 774
781 776 773 771 771 770 770 765 777 742 739 726 727 730 740 733 741 745 753 762 751 750 759 776 787 760 749 755 769 770 766 785 825 811 798 796 806 782 766 763 763 760 753 759 769
776 773 770 765 765 769 764 765 754 740 725 731 731 740 739 733 735 745 747 749 745 747 762 767 767 744 748 745 751 772 784 759 787 788 800 785 783 766 763 763 764 760 756 758 766
779 771 762 762 763 766 759 751 734 721 726 725 738 728 741 735 746 744 745 734 740 737 732 747 770 747 757 751 757 760 752 788 780 817 822 798 801 788 775 768 766 765 762 762 764
778 763 756 759 762 756 746 735 727 718 724 729 727 726 724 730 733 738 736 728 726 735 734 740 755 763 760 763 760 772 773 768 766 784 801 811 793 768 772 765 765 763 760 761 764
777 757 755 755 753 738 736 725 720 720 720 724 725 721 721 716 727 728 733 728 715 721 745 738 747 764 761 751 748 742 754 760 783 802 786 794 792 754 760 761 761 759 760 759 762
772 756 754 753 739 730 728 724 718 720 715 720 723 717 713 720 734 720 722 709 715 720 734 733 753 773 777 765 759 760 755 753 757 769 789 799 784 760 761 763 763 762 758 762 764
776 749 744 749 727 729 724 729 726 714 711 709 713 711 720 723 714 721 718 723 719 718 731 730 738 752 762 757 745 767 762 757 761 779 775 780 773 766 766 768 764 766 764 762 770
771 746 747 729 729 727 718 716 720 720 712 707 716 717 718 729 721 724 714 725 726 737 728 727 749 745 736 738 737 747 753 759 765 761 775 766 772 767 769 773 772 769 766 769 770
766 755 747 741 735 728 730 721 714 709 709 715 719 711 713 723 715 721 716 721 726 732 731 723 748 743 749 745 744 751 746 753 755 756 761 765 772 760 766 765 769 771 772 773 773
772 770 764 734 728 727 717 718 712 706 700 701 706 705 711 708 703 701 698 703 701 719 728 734 741 754 760 752 752 766 750 750 752 753 756 775 764 763 768 770 771 770 772 775 777
Wind_Speed
19 20 20 20 20 19 22 19 13 8 8 7 6 5 5 4 4 4 7 3 5 8 8 7 7 6 6 2 3 4 1 7 8 9 8 7 6 6 9 13 12 7 12 23 22
20 20 20 21 21 20 21 20 12 8 8 7 6 6 4 3 5 11 8 8 7 10 7 8 6 5 2 3 2 4 6 7 5 7 4 3 2 10 9 11 15 19 22 26 22
21 21 21 22 23 21 22 20 11 7 8 6 4 7 5 2 6 2 5 10 12 12 5 4 4 4 1 1 3 3 8 6 6 8 7 6 7 4 9 7 11 21 20 21 21
22 22 22 23 24 23 22 20 10 6 6 4 4 8 6 2 5 2 2 16 14 8 8 6 5 4 1 3 4 4 3 5 8 4 3 5 10 7 11 8 16 21 23 21 18
24 24 24 24 25 25 23 19 8 4 4 2 9 10 5 7 3 1 7 16 16 9 9 7 6 3 2 3 4 4 5 5 8 4 4 7 7 8 12 15 19 22 22 19 17
24 25 25 25 26 26 24 15 4 2 2 4 12 10 4 8 2 4 12 15 12 11 8 7 1 3 2 1 5 6 12 12 2 7 7 7 10 6 9 15 19 20 19 18 17
25 26 26 26 26 27 25 8 1 0 1 8 11 5 7 2 2 6 12 12 12 9 7 4 1 7 2 2 2 6 11 6 5 6 7 9 10 7 13 16 19 18 16 16 17
25 27 27 27 28 28 20 2 3 3 4 9 8 3 3 2 3 8 10 9 10 7 1 3 3 3 4 1 6 7 5 10 6 8 5 13 12 11 14 16 17 17 16 16 16
26 27 28 27 30 26 8 4 6 5 6 6 3 6 5 5 7 10 11 10 11 7 4 2 4 4 4 9 8 8 9 8 9 4 7 10 12 12 13 14 15 16 15 15 15
27 27 28 26 30 16 5 4 6 5 4 2 4 6 7 6 11 11 10 12 10 11 7 6 6 8 8 9 5 9 7 7 8 8 7 7 11 13 13 14 15 15 15 14 15
28 28 27 26 28 6 3 1 5 6 8 6 4 3 7 9 15 12 12 15 12 14 11 12 9 11 12 9 3 1 5 11 5 2 6 4 9 12 13 13 14 14 14 15 14
29 29 28 26 24 2 4 4 5 5 7 13 11 7 5 10 9 14 19 12 16 16 13 7 13 9 3 4 6 5 7 9 5 1 8 6 5 9 13 13 14 14 14 14 14
30 29 29 26 13 0 6 1 4 4 6 7 10 12 13 12 12 18 19 8 16 16 16 14 8 8 7 9 10 9 9 10 8 8 3 6 8 9 11 11 11 12 14 13 15
30 30 29 29 1 9 3 2 11 5 5 11 10 9 11 11 9 21 21 10 8 15 14 11 8 10 10 10 11 9 3 3 8 13 10 8 6 11 10 13 15 15 15 15 15
29 30 28 21 13 5 1 8 4 5 5 11 9 10 18 14 15 16 21 10 14 10 9 9 13 12 11 10 10 6 5 3 5 10 3 10 9 10 10 12 16 17 17 16 16
31 29 29 8 8 10 10 9 5 7 10 8 9 15 19 20 10 18 17 12 3 8 14 2 1 6 7 7 4 10 8 6 5 7 9 6 8 9 10 14 13 17 16 16 16
32 28 22 10 4 4 9 5 6 10 5 9 11 18 22 16 15 16 22 20 12 14 13 13 13 7 9 12 8 12 11 7 8 8 5 5 6 12 3 4 7 10 17 17 16
33 27 13 15 8 5 7 8 12 7 12 2 7 17 23 20 16 18 20 20 21 17 13 14 16 15 12 13 11 13 9 4 6 5 7 4 6 3 0 6 7 10 13 18 16
30 10 8 6 10 11 8 16 12 13 8 8 10 15 22 17 12 16 19 22 22 17 11 15 12 11 7 6 8 9 10 5 2 2 6 5 3 8 1 2 3 10 13 13 16
17 10 10 6 7 13 10 21 19 11 4 9 15 16 20 22 16 18 19 20 22 21 16 8 12 12 7 8 3 8 10 7 6 3 5 7 4 2 1 3 1 7 11 14 15
7 5 5 7 11 8 15 23 26 13 11 6 14 11 15 19 22 22 17 10 24 21 19 9 10 11 10 12 14 7 10 8 3 5 4 3 6 4 2 6 3 4 9 12 14
6 5 3 15 9 10 17 22 14 22 16 11 7 10 13 17 21 21 24 21 18 20 23 16 11 11 18 5 4 10 15 14 7 10 2 6 1 6 3 3 5 5 6 10 12
4 5 2 10 9 14 15 23 18 21 21 17 13 9 8 13 15 24 18 14 12 19 20 18 10 9 8 8 6 12 9 12 5 4 5 7 3 5 3 4 6 8 7 10 10
4 4 5 7 10 10 19 18 24 17 17 19 16 12 8 9 13 14 19 8 11 17 3 17 15 16 13 15 16 13 12 14 14 9 8 10 9 4 1 3 2 5 8 7 9
5 3 5 6 12 14 14 13 23 23 19 17 17 18 15 10 13 10 20 10 10 5 10 15 17 15 17 6 9 14 14 15 16 15 9 3 4 2 1 3 5 6 5 8 11
4 3 2 7 5 11 13 18 19 21 15 18 18 19 19 13 11 12 13 14 12 11 13 11 11 12 14 11 14 14 15 16 16 10 11 6 6 0 2 2 3 3 2 5 7
1 5 5 2 8 11 17 17 17 14 21 15 18 17 17 21 15 3 7 7 8 14 18 13 10 11 16 10 13 15 16 18 14 12 9 9 2 3 4 5 6 3 2 3 6
Wind_Direction
15 12 9 4 2 359 357 352 341 327 316 296 269 235 235 247 265 265 245 231 184 172 157 180 211 239 257 289 296 235 151 57 34 21 65 126 118 77 92 105 63 76 111 131 138
12 9 6 3 358 356 354 349 336 319 315 301 262 212 208 238 270 244 232 209 176 157 172 201 205 229 232 2 0 307 69 42 20 29 345 121 133 125 129 112 96 97 111 130 141
9 7 4 1 356 353 350 345 331 310 314 306 246 193 178 189 263 175 203 191 176 167 205 222 206 253 235 282 26 13 42 20 36 34 1 131 135 114 130 129 132 136 137 143 148
8 4 1 359 355 351 347 344 326 301 318 304 198 172 163 206 215 68 307 171 168 180 184 186 214 226 258 52 24 290 71 356 350 13 29 132 109 117 48 72 125 138 142 147 154
5 2 359 357 353 349 345 341 326 293 324 271 171 161 147 210 257 15 154 156 163 175 197 202 221 266 312 21 303 303 2 336 331 26 122 131 110 111 75 102 125 137 147 151 154
2 1 357 353 351 347 342 338 323 296 330 169 164 166 243 226 77 140 154 161 176 187 188 210 281 311 300 6 315 346 311 304 323 102 142 138 131 148 107 123 134 146 152 154 154
357 357 356 352 349 345 339 330 282 0 87 159 164 167 247 52 137 161 166 176 176 193 188 176 275 269 320 259 359 299 282 275 167 162 134 144 150 100 135 140 144 150 154 154 160
354 353 354 352 348 341 338 308 141 111 128 140 157 216 256 189 155 159 169 163 176 181 185 183 268 292 285 339 236 266 256 175 140 165 145 234 117 134 147 149 152 154 158 162 168
352 349 351 351 348 342 358 122 123 112 136 141 171 239 170 133 182 177 180 180 167 176 167 202 252 290 221 245 237 209 175 137 150 197 153 246 116 142 165 161 155 164 166 170 170
351 348 348 349 348 347 69 119 123 114 136 200 254 233 183 200 158 166 177 170 168 163 170 211 224 239 211 226 214 174 175 158 158 168 219 185 105 149 169 173 165 170 172 176 180
348 346 345 345 345 337 25 262 205 181 208 256 163 291 142 123 144 173 167 173 171 181 193 204 226 217 207 220 8 271 233 173 155 129 245 223 125 158 169 178 174 176 175 181 183
346 343 342 341 340 262 348 271 46 346 286 219 237 250 213 176 160 160 169 173 179 192 201 187 225 208 177 212 219 219 186 175 141 165 246 167 163 158 174 188 180 182 184 180 172
345 342 339 338 337 48 300 296 338 311 254 171 201 212 185 195 186 172 191 190 194 197 200 215 156 141 194 193 206 200 231 157 189 166 204 189 181 180 183 189 194 194 187 189 176
343 341 340 337 344 330 212 183 321 216 262 166 196 200 183 200 206 173 197 186 195 203 199 231 148 195 208 205 225 193 144 176 182 204 211 213 205 189 183 198 199 199 196 191 187
339 338 336 336 300 268 79 322 313 216 251 127 142 137 167 190 138 183 192 200 198 190 197 177 191 199 206 201 202 94 151 176 198 218 204 185 267 137 180 220 206 201 196 194 190
333 333 331 334 275 261 298 312 211 229 232 168 156 176 175 203 183 149 181 225 278 199 219 242 116 224 195 139 182 140 157 173 211 236 221 203 246 245 199 229 241 198 194 192 191
328 324 313 275 276 292 312 225 213 233 122 175 183 179 189 183 174 181 188 195 195 190 195 201 202 166 182 151 158 200 192 193 211 204 258 109 234 252 17 358 271 242 191 189 190
326 318 295 253 253 294 233 211 229 218 216 87 191 188 199 182 193 191 188 197 218 215 188 198 185 189 180 206 184 212 258 286 203 194 130 148 236 223 345 293 256 235 218 184 192
331 313 272 265 229 224 222 210 218 237 241 204 184 195 199 190 195 193 203 205 198 209 228 204 208 145 198 180 209 165 221 22 263 120 261 145 185 240 225 332 256 212 210 186 188
324 296 251 210 185 190 218 226 219 228 264 240 210 200 198 196 200 198 193 209 202 196 236 203 213 182 143 168 155 271 159 193 221 242 265 134 260 356 287 353 88 209 197 190 188
292 272 121 182 170 202 218 220 225 196 231 232 230 221 227 198 204 198 192 196 205 200 209 204 236 156 171 206 201 176 205 233 24 317 311 233 120 82 358 356 320 223 210 195 191
291 241 91 160 199 212 224 223 220 224 216 235 257 264 225 219 203 209 215 212 198 204 203 208 210 206 207 109 288 224 209 201 218 174 229 319 23 126 157 289 286 256 208 201 198
274 277 155 201 219 217 228 228 222 223 215 213 221 230 213 221 219 215 209 191 187 189 198 187 217 187 182 167 183 211 205 221 231 285 220 276 97 136 169 252 275 266 217 200 205
276 248 180 210 261 271 211 213 217 229 228 217 224 223 209 215 210 212 206 154 191 206 28 180 209 229 206 209 189 195 198 209 221 225 229 220 275 148 154 314 296 255 255 228 214
224 241 355 197 218 224 244 220 218 219 219 211 217 225 213 230 199 213 209 149 191 151 188 211 221 219 250 287 209 204 208 209 222 240 246 337 283 351 65 347 348 329 269 235 225
289 289 211 288 270 229 208 227 226 218 206 211 224 210 225 225 223 185 189 196 181 185 196 214 218 208 225 236 234 236 229 211 221 222 235 246 262 258 26 315 324 327 264 231 218
301 261 276 179 217 226 219 221 222 233 225 231 214 224 214 221 230 312 310 269 183 183 188 186 175 197 220 212 217 227 210 207 191 202 219 227 215 82 302 334 331 302 222 157 157